Location: Mohawk View
(42.7837°N, 73.7885°W)
Time: 02:20:39
(UTC+00:00)

Cosmos 2360 Rocket - Pass Details

Date: 17 June 2021
Orbit: 835 x 843 km, 71.0° (Epoch: 02 August)

Event Time Altitude Azimuth Distance (km) Brightness Sun altitude
Exits shadow 01:03:37 - 159° (SSE) 3,295 4.7 -5.0°
Reaches altitude 10° 01:06:26 10° 144° (SE) 2,449 4.0 -5.4°
Maximum altitude 01:10:20 19° 100° (E) 1,874 3.5 -5.9°
Drops below altitude 10° 01:14:13 10° 56° (NE) 2,458 4.5 -6.5°
Sets 01:17:18 0° 39° (NE) 3,396 5.4 -6.9°
